StationID,Date,MaxTemp,MinTemp,Precipitation,Snowfall,SnowDepth
"CA004057157","2007-11-01",,,0.00,0.00,0.00
"CA004057157","2007-11-02",,,0.00,0.00,0.00
"CA004057157","2007-11-03",,,0.00,0.00,0.00
"CA004057157","2007-11-04",,,0.00,0.00,0.00
"CA004057157","2007-11-05",,,0.00,0.00,0.00
"CA004057157","2007-11-06",,,0.00,0.00,0.00
"CA004057157","2007-11-07",,,4.00,4.00,0.00
"CA004057157","2007-11-08",,,0.00,0.00,0.00
"CA004057157","2007-11-09",,,0.00,0.00,0.00
"CA004057157","2007-11-10",,,30.00,30.00,0.00
"CA004057157","2007-11-11",,,0.00,0.00,0.00
"CA004057157","2007-11-12",,,0.00,0.00,0.00
"CA004057157","2007-11-13",,,0.00,0.00,0.00
"CA004057157","2007-11-14",,,0.00,0.00,0.00
"CA004057157","2007-11-15",,,0.00,0.00,0.00
"CA004057157","2007-11-16",,,0.00,0.00,0.00
"CA004057157","2007-11-17",,,0.00,0.00,0.00
"CA004057157","2007-11-18",,,0.00,0.00,0.00
"CA004057157","2007-11-19",,,0.00,0.00,0.00
"CA004057157","2007-11-20",,,20.00,20.00,0.00
"CA004057157","2007-11-21",,,0.00,0.00,40.00
"CA004057157","2007-11-22",,,0.00,0.00,50.00
"CA004057157","2007-11-23",,,0.00,0.00,50.00
"CA004057157","2007-11-24",,,24.00,24.00,50.00
"CA004057157","2007-11-25",,,12.00,12.00,70.00
"CA004057157","2007-11-26",,,0.00,0.00,90.00
"CA004057157","2007-11-27",,,40.00,40.00,90.00
"CA004057157","2007-11-28",,,0.00,0.00,140.00
"CA004057157","2007-11-29",,,0.00,0.00,140.00
"CA004057157","2007-11-30",,,0.00,0.00,120.00
"CA004057157","2007-12-05",,,10.00,10.00,
"CA004057157","2007-12-06",,,,,170.00
"CA004057157","2007-12-09",,,2.00,2.00,
"CA004057157","2007-12-10",,,,,170.00
"CA004057157","2007-12-11",,,0.00,0.00,
"CA004057157","2007-12-12",,,,,170.00
"CA004057157","2007-12-13",,,0.00,0.00,
"CA004057157","2007-12-14",,,,,220.00
"CA004057157","2007-12-17",,,0.00,0.00,
"CA004057157","2007-12-18",,,0.00,0.00,240.00
"CA004057157","2007-12-19",,,0.00,0.00,210.00
"CA004057157","2007-12-20",,,6.00,6.00,210.00
"CA004057157","2007-12-21",,,0.00,0.00,220.00
"CA004057157","2007-12-22",,,0.00,0.00,220.00
"CA004057157","2007-12-23",,,0.00,0.00,220.00
"CA004057157","2007-12-24",,,5.00,0.00,220.00
"CA004057157","2007-12-25",,,0.00,0.00,220.00
"CA004057157","2007-12-26",,,0.00,0.00,220.00
"CA004057157","2007-12-27",,,8.00,8.00,220.00
"CA004057157","2007-12-28",,,0.00,0.00,230.00
"CA004057157","2007-12-29",,,2.00,2.00,230.00
"CA004057157","2007-12-30",,,1.00,1.00,230.00
"CA004057157","2007-12-31",,,0.00,0.00,230.00
"CA004057157","2008-01-01",,,0.00,0.00,230.00
"CA004057157","2008-01-02",,,0.00,0.00,230.00
"CA004057157","2008-01-03",,,0.00,0.00,230.00
"CA004057157","2008-01-04",,,0.00,0.00,200.00
"CA004057157","2008-01-05",,,0.00,0.00,270.00
"CA004057157","2008-01-06",,,2.00,2.00,190.00
"CA004057157","2008-01-07",,,1.00,1.00,200.00
"CA004057157","2008-01-08",,,0.00,0.00,200.00
"CA004057157","2008-01-09",,,1.00,1.00,200.00
"CA004057157","2008-01-10",,,8.00,8.00,210.00
"CA004057157","2008-01-11",,,2.00,2.00,220.00
"CA004057157","2008-01-12",,,0.00,0.00,210.00
"CA004057157","2008-01-13",,,0.00,0.00,210.00
"CA004057157","2008-01-14",,,0.00,0.00,210.00
"CA004057157","2008-01-15",,,0.00,0.00,160.00
"CA004057157","2008-01-16",,,2.00,2.00,
"CA004057157","2008-01-17",,,0.00,0.00,220.00
"CA004057157","2008-01-18",,,2.00,2.00,220.00
"CA004057157","2008-01-19",,,0.00,0.00,220.00
"CA004057157","2008-01-20",,,0.00,0.00,220.00
"CA004057157","2008-01-21",,,0.00,0.00,220.00
"CA004057157","2008-01-22",,,30.00,30.00,220.00
"CA004057157","2008-01-23",,,0.00,0.00,250.00
"CA004057157","2008-01-24",,,0.00,0.00,250.00
"CA004057157","2008-01-25",,,1.00,1.00,250.00
"CA004057157","2008-01-26",,,0.00,0.00,260.00
"CA004057157","2008-01-27",,,0.00,0.00,260.00
"CA004057157","2008-01-28",,,0.00,0.00,230.00
"CA004057157","2008-01-29",,,0.00,0.00,280.00
"CA004057157","2008-01-30",,,0.00,0.00,260.00
"CA004057157","2008-01-31",,,0.00,0.00,260.00
"CA004057157","2008-02-01",,,2.00,2.00,
"CA004057157","2008-02-02",,,0.00,0.00,260.00
"CA004057157","2008-02-03",,,0.00,0.00,260.00
"CA004057157","2008-02-04",,,0.00,0.00,250.00
"CA004057157","2008-02-05",,,0.00,0.00,250.00
"CA004057157","2008-02-06",,,0.00,0.00,250.00
"CA004057157","2008-02-07",,,0.00,0.00,250.00
"CA004057157","2008-02-08",,,0.00,0.00,250.00
"CA004057157","2008-02-09",,,0.00,0.00,250.00
"CA004057157","2008-02-10",,,0.00,0.00,250.00
"CA004057157","2008-02-11",,,0.00,0.00,250.00
"CA004057157","2008-02-12",,,30.00,30.00,250.00
"CA004057157","2008-02-13",,,1.00,1.00,280.00
"CA004057157","2008-02-14",,,20.00,20.00,280.00
"CA004057157","2008-02-15",,,0.00,0.00,290.00
"CA004057157","2008-02-16",,,0.00,0.00,290.00
"CA004057157","2008-02-17",,,0.00,0.00,290.00
"CA004057157","2008-02-18",,,0.00,0.00,290.00
"CA004057157","2008-02-19",,,0.00,0.00,290.00
"CA004057157","2008-02-20",,,0.00,0.00,290.00
"CA004057157","2008-02-21",,,0.00,0.00,290.00
"CA004057157","2008-02-22",,,0.00,0.00,290.00
"CA004057157","2008-02-23",,,0.00,0.00,280.00
"CA004057157","2008-02-24",,,0.00,0.00,280.00
"CA004057157","2008-02-25",,,0.00,0.00,280.00
"CA004057157","2008-02-26",,,0.00,0.00,260.00
"CA004057157","2008-02-27",,,0.00,0.00,260.00
"CA004057157","2008-02-28",,,0.00,0.00,260.00
"CA004057157","2008-02-29",,,0.00,0.00,240.00
"CA004057157","2008-03-01",,,0.00,0.00,220.00
"CA004057157","2008-03-02",,,0.00,0.00,220.00
"CA004057157","2008-03-03",,,0.00,0.00,220.00
"CA004057157","2008-03-04",,,0.00,0.00,220.00
"CA004057157","2008-03-05",,,0.00,0.00,230.00
"CA004057157","2008-03-06",,,0.00,0.00,220.00
"CA004057157","2008-03-07",,,0.00,0.00,220.00
"CA004057157","2008-03-08",,,0.00,0.00,220.00
"CA004057157","2008-03-09",,,0.00,0.00,220.00
"CA004057157","2008-03-10",,,0.00,0.00,220.00
"CA004057157","2008-03-11",,,0.00,0.00,220.00
"CA004057157","2008-03-12",,,0.00,0.00,140.00
"CA004057157","2008-03-13",,,0.00,0.00,60.00
"CA004057157","2008-03-14",,,0.00,0.00,40.00
"CA004057157","2008-03-15",,,0.00,0.00,40.00
"CA004057157","2008-03-16",,,0.00,0.00,40.00
"CA004057157","2008-03-17",,,2.00,2.00,30.00
"CA004057157","2008-03-18",,,0.00,0.00,30.00
"CA004057157","2008-03-19",,,0.00,0.00,20.00
"CA004057157","2008-03-20",,,0.00,0.00,20.00
"CA004057157","2008-03-21",,,0.00,0.00,0.00
"CA004057157","2008-03-22",,,0.00,0.00,0.00
"CA004057157","2008-03-23",,,0.00,0.00,0.00
"CA004057157","2008-03-24",,,0.00,0.00,0.00
"CA004057157","2008-03-25",,,0.00,0.00,0.00
"CA004057157","2008-03-26",,,0.00,0.00,0.00
"CA004057157","2008-03-27",,,0.00,0.00,0.00
"CA004057157","2008-03-28",,,0.00,0.00,0.00
"CA004057157","2008-03-29",,,0.00,0.00,0.00
"CA004057157","2008-03-30",,,0.00,0.00,0.00
"CA004057157","2008-03-31",,,0.00,0.00,0.00
"CA004057157","2008-04-01",,,,,0.00
"CA004057157","2008-04-03",,,0.00,0.00,
"CA004057157","2008-04-04",,,0.00,0.00,0.00
"CA004057157","2008-04-05",,,0.00,0.00,0.00
"CA004057157","2008-04-06",,,0.00,0.00,0.00
"CA004057157","2008-04-07",,,0.00,0.00,0.00
"CA004057157","2008-04-08",,,0.00,0.00,0.00
"CA004057157","2008-04-09",,,0.00,0.00,0.00
"CA004057157","2008-04-10",,,0.00,0.00,0.00
"CA004057157","2008-04-11",,,,,0.00
"CA004057157","2008-04-12",,,0.00,0.00,
"CA004057157","2008-04-13",,,,,0.00
"CA004057157","2008-04-20",,,0.00,0.00,
"CA004057157","2008-04-21",,,12.00,12.00,0.00
"CA004057157","2008-04-22",,,,,20.00
"CA004057157","2008-04-28",,,0.00,0.00,
"CA004057157","2008-04-29",,,0.00,0.00,0.00
"CA004057157","2008-04-30",,,,,0.00
